Location: Newark
(45.2500°N, 7.5833°E)
Time: 22:52:45
(UTC+00:00)

N. Korean satellite - Pass Details

Date: 17 December 2019
Orbit: 454 x 507 km, 97.2° (Epoch: 21 January)

Event Time Altitude Azimuth Distance (km) Brightness Sun altitude
Rises 17:19:44 0° 199° (SSW) 2,592 10.8 -15.3°
Reaches altitude 10° 17:22:13 10° 216° (SW) 1,707 10.1 -15.8°
Maximum altitude 17:25:02 21° 266° (W) 1,178 9.5 -16.2°
Drops below altitude 10° 17:27:51 10° 317° (NW) 1,701 9.7 -16.7°
Sets 17:30:19 0° 334° (NNW) 2,579 10.4 -17.1°
